Time,TemperatureF,DewpointF,PressureIn,WindDirection,WindDirectionDegrees,WindSpeedMPH,WindSpeedGustMPH,Humidity,HourlyPrecipIn,Conditions,Clouds,dailyrainin,SoftwareType,DateUTC
2013-02-23 00:09:00,32.5,31.0,30.19,North,354,0.0,1.0,93,0.02,,,0.00,weatherlink.com 1.10,2013-02-23 05:09:00,
2013-02-23 00:24:00,32.7,31.0,30.18,North,354,0.0,1.0,94,0.03,,,0.01,weatherlink.com 1.10,2013-02-23 05:24:00,
2013-02-23 00:39:00,32.8,31.0,30.18,North,354,0.0,2.0,94,0.01,,,0.01,weatherlink.com 1.10,2013-02-23 05:39:00,
2013-02-23 00:54:00,32.7,31.0,30.17,North,354,0.0,1.0,94,0.01,,,0.01,weatherlink.com 1.10,2013-02-23 05:54:00,
2013-02-23 01:09:00,33.0,32.0,30.16,North,354,0.0,1.0,94,0.01,,,0.02,weatherlink.com 1.10,2013-02-23 06:09:00,
2013-02-23 01:24:00,32.8,31.0,30.15,North,354,0.0,1.0,94,0.01,,,0.02,weatherlink.com 1.10,2013-02-23 06:24:00,
2013-02-23 01:39:00,33.0,32.0,30.15,NNE,13,0.0,3.0,94,0.01,,,0.02,weatherlink.com 1.10,2013-02-23 06:39:00,
2013-02-23 01:54:00,32.9,31.0,30.14,NNE,13,0.0,2.0,94,0.02,,,0.03,weatherlink.com 1.10,2013-02-23 06:54:00,
2013-02-23 02:09:00,33.0,32.0,30.15,North,11,0.0,2.0,94,0.01,,,0.03,weatherlink.com 1.10,2013-02-23 07:09:00,
2013-02-23 02:24:00,33.0,32.0,30.14,North,11,0.0,2.0,95,0.02,,,0.04,weatherlink.com 1.10,2013-02-23 07:24:00,
2013-02-23 02:39:00,33.0,32.0,30.13,North,11,0.0,2.0,95,0.02,,,0.04,weatherlink.com 1.10,2013-02-23 07:39:00,
2013-02-23 02:54:00,33.1,32.0,30.13,North,11,1.0,1.0,95,0.01,,,0.04,weatherlink.com 1.10,2013-02-23 07:54:00,
2013-02-23 03:09:00,33.1,32.0,30.11,North,11,0.0,1.0,95,0.01,,,0.04,weatherlink.com 1.10,2013-02-23 08:09:00,
2013-02-23 03:24:00,33.2,32.0,30.11,North,11,2.0,2.0,95,0.00,,,0.04,weatherlink.com 1.10,2013-02-23 08:24:00,
2013-02-23 03:39:00,33.2,32.0,30.11,North,11,0.0,1.0,95,0.00,,,0.04,weatherlink.com 1.10,2013-02-23 08:39:00,
2013-02-23 03:54:00,33.2,32.0,30.09,North,11,0.0,2.0,95,0.00,,,0.04,weatherlink.com 1.10,2013-02-23 08:54:00,
2013-02-23 04:09:00,33.3,32.0,30.09,North,11,0.0,2.0,95,0.01,,,0.05,weatherlink.com 1.10,2013-02-23 09:09:00,
2013-02-23 04:24:00,33.3,32.0,30.09,North,360,0.0,2.0,95,0.01,,,0.05,weatherlink.com 1.10,2013-02-23 09:24:00,
2013-02-23 04:39:00,33.4,32.0,30.07,NNE,12,1.0,2.0,95,0.01,,,0.05,weatherlink.com 1.10,2013-02-23 09:39:00,
2013-02-23 04:54:00,33.5,32.0,30.07,NNE,13,0.0,2.0,95,0.01,,,0.05,weatherlink.com 1.10,2013-02-23 09:54:00,
2013-02-23 05:10:00,33.6,32.0,30.07,North,360,1.0,3.0,95,0.00,,,0.05,weatherlink.com 1.10,2013-02-23 10:10:00,
2013-02-23 05:24:00,33.7,33.0,30.07,NNE,22,0.0,2.0,95,0.00,,,0.05,weatherlink.com 1.10,2013-02-23 10:24:00,
2013-02-23 05:39:00,33.7,33.0,30.08,North,2,0.0,2.0,95,0.00,,,0.05,weatherlink.com 1.10,2013-02-23 10:39:00,
2013-02-23 05:55:00,33.9,33.0,30.07,North,2,0.0,0.0,95,0.00,,,0.05,weatherlink.com 1.10,2013-02-23 10:55:00,
2013-02-23 06:10:00,33.9,33.0,30.04,North,2,0.0,1.0,95,0.00,,,0.05,weatherlink.com 1.10,2013-02-23 11:10:00,
2013-02-23 06:24:00,33.9,33.0,30.04,North,2,0.0,2.0,95,0.00,,,0.05,weatherlink.com 1.10,2013-02-23 11:24:00,
2013-02-23 06:39:00,34.1,33.0,30.04,North,2,0.0,2.0,95,0.00,,,0.05,weatherlink.com 1.10,2013-02-23 11:39:00,
2013-02-23 06:54:00,34.1,33.0,30.03,North,2,0.0,1.0,95,0.00,,,0.05,weatherlink.com 1.10,2013-02-23 11:54:00,
2013-02-23 07:09:00,34.3,33.0,30.03,North,2,1.0,2.0,95,0.00,,,0.05,weatherlink.com 1.10,2013-02-23 12:09:00,
2013-02-23 07:25:00,34.2,33.0,30.04,North,360,1.0,3.0,95,0.00,,,0.05,weatherlink.com 1.10,2013-02-23 12:25:00,
2013-02-23 07:40:00,34.5,33.0,30.04,NNE,15,0.0,3.0,95,0.00,,,0.05,weatherlink.com 1.10,2013-02-23 12:40:00,
2013-02-23 07:54:00,34.7,34.0,30.04,NNE,15,0.0,2.0,96,0.00,,,0.05,weatherlink.com 1.10,2013-02-23 12:54:00,
2013-02-23 08:11:00,35.0,34.0,30.04,NNE,15,0.0,2.0,96,0.01,,,0.06,weatherlink.com 1.10,2013-02-23 13:11:00,
2013-02-23 08:26:00,35.3,34.0,30.03,NNE,15,0.0,2.0,95,0.01,,,0.06,weatherlink.com 1.10,2013-02-23 13:26:00,
2013-02-23 08:39:00,35.4,34.0,30.01,NNW,341,0.0,3.0,96,0.02,,,0.07,weatherlink.com 1.10,2013-02-23 13:39:00,
2013-02-23 08:55:00,35.8,35.0,30.02,North,4,2.0,4.0,96,0.02,,,0.07,weatherlink.com 1.10,2013-02-23 13:55:00,
2013-02-23 09:11:00,36.0,35.0,30.01,North,1,1.0,2.0,96,0.02,,,0.08,weatherlink.com 1.10,2013-02-23 14:11:00,
2013-02-23 09:25:00,36.4,35.0,30.00,North,359,0.0,2.0,96,0.02,,,0.08,weatherlink.com 1.10,2013-02-23 14:25:00,
2013-02-23 09:40:00,36.5,36.0,29.98,North,3,5.0,5.0,96,0.01,,,0.08,weatherlink.com 1.10,2013-02-23 14:40:00,
2013-02-23 09:55:00,36.8,36.0,29.97,North,7,2.0,3.0,96,0.02,,,0.09,weatherlink.com 1.10,2013-02-23 14:55:00,
2013-02-23 10:10:00,37.3,36.0,29.96,North,5,1.0,3.0,96,0.01,,,0.09,weatherlink.com 1.10,2013-02-23 15:10:00,
2013-02-23 10:25:00,37.8,37.0,29.96,North,2,1.0,4.0,96,0.01,,,0.09,weatherlink.com 1.10,2013-02-23 15:25:00,
2013-02-23 10:40:00,38.3,37.0,29.95,North,9,1.0,4.0,96,0.01,,,0.09,weatherlink.com 1.10,2013-02-23 15:40:00,
2013-02-23 10:55:00,38.7,38.0,29.94,North,9,0.0,2.0,96,0.00,,,0.09,weatherlink.com 1.10,2013-02-23 15:55:00,
2013-02-23 11:10:00,38.9,38.0,29.94,North,11,1.0,3.0,96,0.01,,,0.10,weatherlink.com 1.10,2013-02-23 16:10:00,
2013-02-23 11:26:00,39.2,38.0,29.93,NNE,25,1.0,4.0,96,0.01,,,0.10,weatherlink.com 1.10,2013-02-23 16:26:00,
2013-02-23 11:41:00,39.7,39.0,29.92,North,357,2.0,5.0,96,0.02,,,0.11,weatherlink.com 1.10,2013-02-23 16:41:00,
2013-02-23 11:56:00,40.2,39.0,29.92,North,10,2.0,5.0,96,0.01,,,0.11,weatherlink.com 1.10,2013-02-23 16:56:00,
2013-02-23 12:11:00,40.7,40.0,29.91,North,1,2.0,4.0,96,0.01,,,0.11,weatherlink.com 1.10,2013-02-23 17:11:00,
2013-02-23 12:26:00,41.3,40.0,29.90,NE,48,3.0,4.0,96,0.02,,,0.12,weatherlink.com 1.10,2013-02-23 17:26:00,
2013-02-23 12:41:00,41.4,40.0,29.90,NNE,17,5.0,5.0,96,0.01,,,0.12,weatherlink.com 1.10,2013-02-23 17:41:00,
2013-02-23 12:56:00,41.9,41.0,29.89,North,358,1.0,5.0,96,0.01,,,0.12,weatherlink.com 1.10,2013-02-23 17:56:00,
2013-02-23 13:11:00,41.9,41.0,29.89,North,6,1.0,4.0,96,0.01,,,0.12,weatherlink.com 1.10,2013-02-23 18:11:00,
2013-02-23 13:26:00,42.3,41.0,29.89,North,359,0.0,5.0,96,0.00,,,0.12,weatherlink.com 1.10,2013-02-23 18:26:00,
2013-02-23 13:41:00,42.4,41.0,29.89,North,353,1.0,3.0,96,0.00,,,0.12,weatherlink.com 1.10,2013-02-23 18:41:00,
2013-02-23 13:56:00,42.8,42.0,29.88,NNE,14,1.0,5.0,96,0.01,,,0.13,weatherlink.com 1.10,2013-02-23 18:56:00,
2013-02-23 14:11:00,43.4,42.0,29.87,NNE,15,1.0,3.0,96,0.01,,,0.13,weatherlink.com 1.10,2013-02-23 19:11:00,
2013-02-23 14:26:00,43.7,43.0,29.87,North,354,0.0,5.0,96,0.01,,,0.13,weatherlink.com 1.10,2013-02-23 19:26:00,
2013-02-23 14:41:00,44.1,43.0,29.86,North,352,1.0,4.0,96,0.01,,,0.13,weatherlink.com 1.10,2013-02-23 19:41:00,
2013-02-23 14:56:00,44.8,44.0,29.85,NNE,12,0.0,3.0,96,0.00,,,0.13,weatherlink.com 1.10,2013-02-23 19:56:00,
2013-02-23 15:11:00,45.1,44.0,29.86,North,357,0.0,4.0,96,0.00,,,0.13,weatherlink.com 1.10,2013-02-23 20:11:00,
2013-02-23 15:26:00,45.4,44.0,29.84,NW,320,0.0,3.0,96,0.00,,,0.13,weatherlink.com 1.10,2013-02-23 20:26:00,
2013-02-23 15:41:00,46.0,45.0,29.84,North,353,0.0,3.0,95,0.00,,,0.13,weatherlink.com 1.10,2013-02-23 20:41:00,
2013-02-23 15:56:00,45.9,45.0,29.83,NNE,18,1.0,3.0,95,0.00,,,0.13,weatherlink.com 1.10,2013-02-23 20:56:00,
2013-02-23 16:11:00,45.8,45.0,29.83,North,350,3.0,3.0,95,0.00,,,0.13,weatherlink.com 1.10,2013-02-23 21:11:00,
2013-02-23 16:26:00,45.7,44.0,29.83,NNW,336,1.0,7.0,94,0.00,,,0.13,weatherlink.com 1.10,2013-02-23 21:26:00,
2013-02-23 16:41:00,45.7,44.0,29.83,North,9,0.0,4.0,94,0.00,,,0.13,weatherlink.com 1.10,2013-02-23 21:41:00,
2013-02-23 16:56:00,45.7,44.0,29.82,North,5,0.0,4.0,94,0.00,,,0.13,weatherlink.com 1.10,2013-02-23 21:56:00,
2013-02-23 17:11:00,45.6,44.0,29.82,North,11,2.0,4.0,94,0.00,,,0.13,weatherlink.com 1.10,2013-02-23 22:11:00,
2013-02-23 17:26:00,45.5,44.0,29.82,North,356,1.0,3.0,94,0.00,,,0.13,weatherlink.com 1.10,2013-02-23 22:26:00,
2013-02-23 17:41:00,45.4,44.0,29.82,North,10,0.0,3.0,94,0.00,,,0.13,weatherlink.com 1.10,2013-02-23 22:41:00,
2013-02-23 17:56:00,45.4,44.0,29.82,NNE,18,0.0,2.0,94,0.00,,,0.13,weatherlink.com 1.10,2013-02-23 22:56:00,
2013-02-23 18:11:00,45.4,44.0,29.82,NNE,19,0.0,1.0,94,0.00,,,0.13,weatherlink.com 1.10,2013-02-23 23:11:00,
2013-02-23 18:26:00,45.4,44.0,29.83,NNE,18,0.0,2.0,95,0.00,,,0.13,weatherlink.com 1.10,2013-02-23 23:26:00,
2013-02-23 18:41:00,45.3,44.0,29.82,NNE,18,0.0,2.0,95,0.00,,,0.13,weatherlink.com 1.10,2013-02-23 23:41:00,
2013-02-23 18:56:00,45.3,44.0,29.82,NNE,26,0.0,2.0,95,0.00,,,0.13,weatherlink.com 1.10,2013-02-23 23:56:00,
2013-02-23 19:11:00,45.2,44.0,29.82,NNE,15,2.0,2.0,95,0.00,,,0.13,weatherlink.com 1.10,2013-02-24 00:11:00,
2013-02-23 19:26:00,45.2,44.0,29.81,North,7,1.0,3.0,95,0.00,,,0.13,weatherlink.com 1.10,2013-02-24 00:26:00,
2013-02-23 19:41:00,45.1,44.0,29.80,NNE,14,1.0,3.0,96,0.00,,,0.13,weatherlink.com 1.10,2013-02-24 00:41:00,
2013-02-23 19:56:00,45.0,44.0,29.80,North,8,0.0,3.0,96,0.00,,,0.13,weatherlink.com 1.10,2013-02-24 00:56:00,
2013-02-23 20:11:00,45.0,44.0,29.80,North,7,2.0,5.0,96,0.00,,,0.13,weatherlink.com 1.10,2013-02-24 01:11:00,
2013-02-23 20:26:00,44.8,44.0,29.80,North,354,0.0,3.0,96,0.00,,,0.13,weatherlink.com 1.10,2013-02-24 01:26:00,
2013-02-23 20:41:00,44.8,44.0,29.80,North,9,1.0,3.0,96,0.00,,,0.13,weatherlink.com 1.10,2013-02-24 01:41:00,
2013-02-23 20:56:00,44.7,44.0,29.80,North,1,1.0,5.0,96,0.00,,,0.13,weatherlink.com 1.10,2013-02-24 01:56:00,
2013-02-23 21:11:00,44.8,44.0,29.80,North,7,0.0,3.0,96,0.00,,,0.13,weatherlink.com 1.10,2013-02-24 02:11:00,
2013-02-23 21:26:00,44.6,44.0,29.79,NNE,15,0.0,5.0,96,0.00,,,0.13,weatherlink.com 1.10,2013-02-24 02:26:00,
2013-02-23 21:41:00,44.6,44.0,29.78,NNE,17,1.0,3.0,96,0.00,,,0.13,weatherlink.com 1.10,2013-02-24 02:41:00,
2013-02-23 21:56:00,44.5,44.0,29.78,North,7,0.0,4.0,96,0.00,,,0.13,weatherlink.com 1.10,2013-02-24 02:56:00,
2013-02-23 22:11:00,44.5,44.0,29.78,North,11,0.0,3.0,96,0.00,,,0.13,weatherlink.com 1.10,2013-02-24 03:11:00,
2013-02-23 22:27:00,44.4,43.0,29.78,North,5,0.0,3.0,96,0.00,,,0.13,weatherlink.com 1.10,2013-02-24 03:27:00,
2013-02-23 22:42:00,44.3,43.0,29.77,NNE,13,1.0,2.0,96,0.00,,,0.13,weatherlink.com 1.10,2013-02-24 03:42:00,
2013-02-23 22:57:00,44.2,43.0,29.78,North,3,1.0,6.0,96,0.00,,,0.13,weatherlink.com 1.10,2013-02-24 03:57:00,
2013-02-23 23:12:00,44.1,43.0,29.77,NNE,15,0.0,4.0,96,0.00,,,0.13,weatherlink.com 1.10,2013-02-24 04:12:00,
2013-02-23 23:27:00,44.1,43.0,29.77,North,353,0.0,3.0,96,0.00,,,0.13,weatherlink.com 1.10,2013-02-24 04:27:00,
2013-02-23 23:42:00,43.9,43.0,29.77,North,358,2.0,3.0,96,0.00,,,0.13,weatherlink.com 1.10,2013-02-24 04:42:00,
2013-02-23 23:57:00,43.7,43.0,29.77,North,9,1.0,5.0,96,0.00,,,0.13,weatherlink.com 1.10,2013-02-24 04:57:00,